Tracking 19827 objects as of 22-Aug-2019
HD Live streaming from Space Station
objects crossing your sky now

FENGYUN 1C DEB

Track FENGYUN 1C DEB now!
10-day predictions


NORAD ID: 36158
Int'l Code: 1999-025DSF
Perigee: 543.7 km
Apogee: 775.5 km
Inclination: 98.6 °
Period: 97.8 minutes
Semi major axis: 7030 km
RCS: 0.0077 m2 (small)
Launch date: May 10, 1999
Source: People's Republic of China (PRC)
Launch site: Taiyaun Space Center, China (TSC)

Note: This is SATELLITE DEBRIS
aabbcc
Your satellite tracking list
Your tracking list is empty




NASA's NSSDC Master Catalog

Two Line Element Set (TLE):
1 36158U 99025DSF 15288.97668185  .00007806  00000-0  99386-3 0  9991
2 36158  98.6029 359.8069 0164874 215.8134 148.3941 14.72699155381284
Source of the keplerian elements: AFSPC